[[{"header":{"parameterUnit":"m.s-1","parameterCategory":1,"la1":30.2991,"la2":30.254,"lo1":-89.0895,"lo2":-89.0444,"dy":0.0017,"dx":0.0017,"nx":28,"ny":28,"refTime":"2023-07-20T09:00:00:Z","depth":0,"parameterNumber":2,"parameterNumberName":"U-component_of_WINDS"},"data":[0,0,0,0,0,0,0,0,0,0,0,0,0,0,0,0,0,0,0,0,0,0,0,0,0,0,0,0,0,0,0,0,0,0,0,0,0,0,0,0,0,0,0,0,0,0,0,0,0,0,0,0,0,0,0,0,0,0,2.514,2.5141,0,2.5206,2.5206,2.5207,2.5227,2.5227,2.5227,2.5227,2.5296,2.5298,2.5301,0,0,0,0,0,0,0,0,0,0,0,0,0,2.5034,2.5036,2.514,2.5141,2.5141,2.5206,2.5206,2.5207,2.5228,2.5227,2.5227,2.5226,2.5296,2.5298,2.5301,0,0,0,0,0,0,0,0,0,0,0,0,0,2.5088,2.5037,2.514,2.5159,2.5162,2.5205,2.5206,2.5208,2.5228,2.5227,2.5227,2.5226,2.5295,2.5298,2.5301,2.5331,0,0,2.5311,2.5312,0,0,0,0,0,0,0,0,2.5085,2.5092,2.5155,2.5158,2.5161,2.5208,2.5195,2.5249,2.5228,2.5203,2.5227,2.5226,2.5267,2.5273,2.5286,2.5334,2.5337,2.5311,2.5313,2.5315,2.5316,0,0,0,0,0,0,0,2.5081,2.5089,2.5166,2.5156,2.516,2.5166,2.5173,2.5205,2.5237,2.5205,2.5206,2.5214,2.5269,2.5283,2.5288,2.5338,2.5311,2.5314,2.5316,2.5317,2.5415,2.5416,0,0,0,0,0,0,2.5074,2.5086,2.5164,2.5168,2.5121,2.5168,2.5176,2.5193,2.5237,2.5243,2.5214,2.5214,2.5278,2.5284,2.5291,2.533,2.5315,2.5318,2.532,2.5415,2.5416,2.5416,0,0,0,0,0,0,2.5072,2.5081,2.5161,2.5127,2.5138,2.517,2.519,2.5195,2.5209,2.5244,2.525,2.5223,2.5278,2.5286,2.5321,2.5332,2.5319,2.5322,2.5414,2.5415,2.5416,2.5407,0,0,0,0,0,0,2.5068,2.508,2.5091,2.5128,2.514,2.5189,2.519,2.5196,2.5214,2.5216,2.5254,2.5259,2.5278,2.5316,2.5324,2.5336,2.5325,2.5413,2.5414,2.5416,2.5406,2.5407,2.5408,0,0,0,0,0,2.5065,2.5086,2.5091,2.51,2.5154,2.519,2.5197,2.5217,2.5215,2.5227,2.5249,2.5258,2.5329,2.5319,2.5329,2.5342,2.5413,2.5414,2.5415,2.5406,2.5407,2.5408,0,0,0,0,0,0,2.505,2.5091,2.5097,2.5131,2.5157,2.5193,2.5209,2.5218,2.5246,2.5246,2.527,2.5279,2.5312,2.5331,2.5319,2.5374,2.5371,2.5375,2.5361,2.5362,2.5363,2.5359,2.5327,0,0,0,0,0,2.505,2.5075,2.511,2.5136,2.5149,2.5176,2.5193,2.5206,2.5234,2.5246,2.5271,2.5298,2.5327,2.5346,2.5374,2.5409,2.5418,2.5423,2.5424,2.5424,2.5427,2.5448,2.5451,2.5421,2.5421,2.5421,0,0,2.5052,2.5077,2.5092,2.5134,2.5156,2.5182,2.5186,2.5213,2.5233,2.525,2.5285,2.5304,2.5337,2.5372,2.5389,2.5388,2.5438,2.5426,2.5427,2.5429,2.545,2.5453,2.5456,2.5422,2.5422,2.5422,0,0,2.5068,2.5089,2.5114,2.5136,2.5168,2.5187,2.5193,2.5228,2.5242,2.5276,2.529,2.5315,2.5363,2.5387,2.5405,2.5431,2.544,2.5439,2.5445,2.5465,2.5467,2.547,2.548,2.5483,2.5442,2.5442,2.5442,0,2.5067,2.5106,2.5126,2.5153,2.5172,2.5188,2.5214,2.5234,2.5274,2.5287,2.5286,2.5348,2.5371,2.5413,2.5419,2.5433,2.5441,2.5435,2.5465,2.5468,2.547,2.5481,2.5484,2.5441,2.5442,2.5442,2.5442,0,2.5102,2.513,2.5146,2.5184,2.5204,2.5231,2.5256,2.5274,2.5286,2.5305,2.5341,2.5369,2.5404,2.5415,2.5426,2.5458,2.5457,2.546,2.5458,2.5472,2.5483,2.5487,2.5441,2.5441,2.5441,2.5441,0,0,2.5112,2.5161,2.5167,2.5185,2.5222,2.5244,2.5271,2.5305,2.5321,2.5348,2.5373,2.5414,2.5417,2.5438,2.5452,2.547,2.549,2.5471,2.5473,2.5475,2.5529,2.5527,2.5531,2.5497,2.5497,2.5498,2.5526,0,2.5134,2.5183,2.5202,2.5242,2.5268,2.5284,2.5308,2.5335,2.5353,2.5379,2.5399,2.5429,2.543,2.5443,2.5461,2.5484,2.5502,2.5482,2.5521,2.5522,2.5513,2.5536,2.5534,2.5559,2.553,2.5531,2.5531,0,2.5166,2.5194,2.5236,2.5271,2.5283,2.5304,2.5337,2.5361,2.5391,2.5404,2.5427,2.544,2.5471,2.5467,2.551,2.5496,2.5513,2.5527,2.5529,2.5534,2.5528,2.5543,2.5568,2.5572,2.5538,2.5537,2.5537,0,2.517,2.5218,2.525,2.5264,2.5306,2.5321,2.5339,2.5368,2.5388,2.5417,2.543,2.5462,2.548,2.5505,2.5527,2.5522,2.5569,2.5566,2.5582,2.5581,2.5592,2.5591,2.5621,2.5601,2.5601,2.5601,2.56,0,2.5193,2.5219,2.5252,2.5272,2.5302,2.5324,2.5353,2.5373,2.5399,2.5424,2.5439,2.5463,2.549,2.5517,2.5535,2.5569,2.5577,2.5589,2.5593,2.5588,2.5587,2.56,2.56,2.5602,2.5601,2.5601,2.5601,0,2.5203,2.5226,2.5262,2.5298,2.5308,2.5329,2.536,2.5381,2.54,2.5431,2.5439,2.547,2.5503,2.5527,2.557,2.5582,2.5618,2.5623,2.5608,2.5611,2.5625,2.5624,2.5665,2.5672,2.5646,2.5647,2.5647,0,2.5217,2.5237,2.5276,2.5293,2.5311,2.5338,2.5358,2.5381,2.5401,2.5438,2.5454,2.5488,2.5516,2.5567,2.5594,2.5627,2.5633,2.5645,2.5638,2.5632,2.5635,2.5634,2.5636,2.5646,2.5647,2.5647,2.5647,0,2.524,2.525,2.5277,2.5309,2.5332,2.5358,2.5384,2.5398,2.5426,2.5448,2.5481,2.5503,2.5546,2.558,2.5615,2.5635,2.5646,2.5649,2.5654,2.565,2.5641,2.5647,2.5612,2.5648,2.5648,2.5648,2.5648,2.5648,2.5253,2.5272,2.5302,2.5333,2.5355,2.5379,2.54,2.5422,2.545,2.5486,2.5498,2.5533,2.5564,2.5613,2.5633,2.5662,2.5662,2.5669,2.5672,2.5674,2.5674,2.5635,2.5668,2.5668,2.5668,2.5668,2.5668,0,2.5278,2.5298,2.5325,2.5362,2.5386,2.5393,2.5423,2.5443,2.5473,2.55,2.5528,2.5566,2.5599,2.5628,2.5663,2.568,2.5686,2.5688,2.5688,2.5693,2.5671,2.5663,2.5683,2.5683,2.5683,2.5683,2.5683,2.5683,2.5294,2.5327,2.5341,2.5385,2.5406,2.5439,2.5456,2.5479,2.5501,2.5544,2.5571,2.5589,2.5618,2.5655,2.5685,2.5693,2.5706,2.5707,2.5716,2.5696,2.5694,2.5692,2.5685,2.5709,2.5709,2.5736,2.5736,2.5736]},{"header":{"parameterUnit":"m.s-1","parameterCategory":1,"la1":30.2991,"la2":30.254,"lo1":-89.0895,"lo2":-89.0444,"dy":0.0017,"dx":0.0017,"nx":28,"ny":28,"refTime":"2023-07-20T09:00:00:Z","depth":0,"parameterNumber":3,"parameterNumberName":"V-component_of_WINDS"},"data":[0,0,0,0,0,0,0,0,0,0,0,0,0,0,0,0,0,0,0,0,0,0,0,0,0,0,0,0,0,0,0,0,0,0,0,0,0,0,0,0,0,0,0,0,0,0,0,0,0,0,0,0,0,0,0,0,0,0,-1.7636,-1.7636,0,-1.7662,-1.7663,-1.7663,-1.7673,-1.7673,-1.7673,-1.7673,-1.77,-1.77,-1.7701,0,0,0,0,0,0,0,0,0,0,0,0,0,-1.7595,-1.7596,-1.7636,-1.7636,-1.7636,-1.7662,-1.7663,-1.7663,-1.7673,-1.7673,-1.7673,-1.7673,-1.77,-1.77,-1.7701,0,0,0,0,0,0,0,0,0,0,0,0,0,-1.7616,-1.7596,-1.7636,-1.7645,-1.7646,-1.7662,-1.7663,-1.7663,-1.7674,-1.7673,-1.7673,-1.7673,-1.7699,-1.77,-1.7701,-1.771,0,0,-1.7705,-1.7705,0,0,0,0,0,0,0,0,-1.7615,-1.7618,-1.7643,-1.7644,-1.7645,-1.7665,-1.7658,-1.7679,-1.7674,-1.7663,-1.7673,-1.7673,-1.7688,-1.769,-1.7695,-1.7712,-1.7713,-1.7705,-1.7706,-1.7706,-1.7707,0,0,0,0,0,0,0,-1.7614,-1.7617,-1.7646,-1.7644,-1.7645,-1.7648,-1.7651,-1.7662,-1.7676,-1.7664,-1.7665,-1.7668,-1.7689,-1.7694,-1.7696,-1.7713,-1.7705,-1.7706,-1.7707,-1.7707,-1.7741,-1.7741,0,0,0,0,0,0,-1.7611,-1.7615,-1.7645,-1.7647,-1.763,-1.7649,-1.7652,-1.7658,-1.7676,-1.7678,-1.7668,-1.7668,-1.7692,-1.7695,-1.7697,-1.771,-1.7706,-1.7707,-1.7708,-1.7741,-1.7741,-1.7741,0,0,0,0,0,0,-1.761,-1.7613,-1.7644,-1.7632,-1.7636,-1.765,-1.7657,-1.7659,-1.7665,-1.7679,-1.7681,-1.7671,-1.7692,-1.7695,-1.7708,-1.7711,-1.7708,-1.7709,-1.774,-1.7741,-1.7741,-1.7735,0,0,0,0,0,0,-1.7609,-1.7613,-1.7616,-1.7632,-1.7636,-1.7654,-1.7657,-1.766,-1.7667,-1.7667,-1.7682,-1.7684,-1.7692,-1.7706,-1.7709,-1.7713,-1.771,-1.774,-1.774,-1.7741,-1.7735,-1.7735,-1.7735,0,0,0,0,0,-1.7607,-1.7613,-1.7616,-1.762,-1.7641,-1.7654,-1.7657,-1.7666,-1.7667,-1.767,-1.768,-1.7684,-1.771,-1.7707,-1.771,-1.7714,-1.774,-1.774,-1.7741,-1.7735,-1.7735,-1.7735,0,0,0,0,0,0,-1.7596,-1.7615,-1.7619,-1.763,-1.764,-1.7656,-1.7661,-1.7666,-1.7676,-1.7677,-1.7688,-1.7691,-1.7703,-1.771,-1.7706,-1.7725,-1.7725,-1.7727,-1.772,-1.772,-1.772,-1.7718,-1.7711,0,0,0,0,0,-1.7595,-1.7605,-1.7621,-1.7629,-1.7634,-1.7647,-1.7653,-1.7659,-1.7671,-1.7675,-1.7685,-1.7696,-1.7708,-1.7714,-1.7725,-1.7737,-1.7741,-1.7741,-1.7741,-1.7741,-1.7742,-1.7751,-1.7751,-1.7742,-1.7742,-1.7742,0,0,-1.7593,-1.7605,-1.761,-1.7627,-1.7636,-1.7646,-1.765,-1.766,-1.7668,-1.7677,-1.7689,-1.7697,-1.771,-1.7723,-1.7729,-1.7729,-1.7746,-1.7742,-1.7742,-1.7743,-1.7751,-1.7752,-1.7753,-1.7743,-1.7743,-1.7743,0,0,-1.7594,-1.7604,-1.7612,-1.7622,-1.7636,-1.7645,-1.7647,-1.7662,-1.7668,-1.7681,-1.7688,-1.7698,-1.7716,-1.7726,-1.7733,-1.7741,-1.7746,-1.7744,-1.7744,-1.7753,-1.7753,-1.7754,-1.7758,-1.7759,-1.7745,-1.7745,-1.7745,0,-1.759,-1.7605,-1.7616,-1.7626,-1.7634,-1.7643,-1.7653,-1.7661,-1.7678,-1.7684,-1.7684,-1.7709,-1.7718,-1.7734,-1.7736,-1.7741,-1.7745,-1.7742,-1.7752,-1.7753,-1.7754,-1.7758,-1.7759,-1.7745,-1.7745,-1.7745,-1.7745,0,-1.7599,-1.761,-1.7615,-1.7633,-1.7641,-1.7651,-1.7663,-1.7671,-1.7677,-1.7686,-1.77,-1.7712,-1.7727,-1.7731,-1.7736,-1.7748,-1.7748,-1.775,-1.7751,-1.7754,-1.7758,-1.776,-1.7744,-1.7744,-1.7744,-1.7744,0,0,-1.7593,-1.7618,-1.7619,-1.7628,-1.7646,-1.7654,-1.7665,-1.768,-1.7686,-1.7698,-1.7708,-1.7725,-1.7728,-1.7736,-1.7743,-1.775,-1.7757,-1.7752,-1.7752,-1.7753,-1.7772,-1.777,-1.7772,-1.7761,-1.7761,-1.7761,-1.7771,0,-1.7597,-1.7617,-1.7628,-1.7643,-1.7654,-1.7664,-1.7674,-1.7686,-1.7696,-1.7707,-1.7717,-1.7729,-1.7731,-1.7736,-1.7744,-1.7755,-1.7761,-1.7754,-1.7771,-1.7771,-1.7767,-1.7774,-1.7771,-1.778,-1.7773,-1.7773,-1.7773,0,-1.7604,-1.7617,-1.7634,-1.7652,-1.7657,-1.7665,-1.7681,-1.7691,-1.7705,-1.7712,-1.7722,-1.773,-1.7743,-1.7743,-1.7761,-1.7756,-1.7764,-1.777,-1.7771,-1.7773,-1.7772,-1.7776,-1.7783,-1.7785,-1.7775,-1.7775,-1.7775,0,-1.7599,-1.762,-1.7634,-1.7641,-1.7662,-1.7668,-1.7677,-1.7692,-1.77,-1.7714,-1.772,-1.7735,-1.7743,-1.7754,-1.7766,-1.7765,-1.7784,-1.7784,-1.779,-1.779,-1.7793,-1.7793,-1.7802,-1.7798,-1.7798,-1.7798,-1.7797,0,-1.7602,-1.7612,-1.7632,-1.764,-1.7652,-1.7665,-1.7677,-1.7687,-1.77,-1.7711,-1.7721,-1.7731,-1.7746,-1.7758,-1.7768,-1.7782,-1.7786,-1.7792,-1.7794,-1.7791,-1.779,-1.7796,-1.7796,-1.7798,-1.7798,-1.7798,-1.7798,0,-1.7598,-1.7611,-1.7627,-1.7646,-1.7652,-1.766,-1.7677,-1.7686,-1.7696,-1.771,-1.7714,-1.773,-1.7746,-1.7759,-1.7778,-1.7785,-1.78,-1.7803,-1.7795,-1.7797,-1.7802,-1.7802,-1.7815,-1.7818,-1.7811,-1.7811,-1.7812,0,-1.7599,-1.7607,-1.7628,-1.7637,-1.7646,-1.7659,-1.7669,-1.7682,-1.7692,-1.7711,-1.7718,-1.7734,-1.7747,-1.7771,-1.7785,-1.7801,-1.7804,-1.7808,-1.7806,-1.7804,-1.7805,-1.7805,-1.7806,-1.7808,-1.7808,-1.7808,-1.7808,0,-1.76,-1.7607,-1.762,-1.7637,-1.7648,-1.7661,-1.7675,-1.7681,-1.7698,-1.7708,-1.7724,-1.7735,-1.7756,-1.7772,-1.779,-1.78,-1.7807,-1.7808,-1.7811,-1.7807,-1.7803,-1.7806,-1.7796,-1.7808,-1.7808,-1.7808,-1.7808,-1.7808,-1.7599,-1.7608,-1.7625,-1.764,-1.7652,-1.7665,-1.7675,-1.7687,-1.7701,-1.7719,-1.7727,-1.7744,-1.776,-1.7785,-1.7795,-1.7809,-1.781,-1.7813,-1.7814,-1.7814,-1.7814,-1.7801,-1.7812,-1.7812,-1.7812,-1.7812,-1.7812,0,-1.7601,-1.7613,-1.7627,-1.7647,-1.7659,-1.7665,-1.7682,-1.7691,-1.7706,-1.7721,-1.7735,-1.7754,-1.7771,-1.7787,-1.7804,-1.7812,-1.7816,-1.7816,-1.7816,-1.7819,-1.7812,-1.7809,-1.7813,-1.7813,-1.7813,-1.7813,-1.7813,-1.7813,-1.7604,-1.7619,-1.7629,-1.7651,-1.7662,-1.7679,-1.7688,-1.7701,-1.7713,-1.7735,-1.7749,-1.7759,-1.7775,-1.7794,-1.781,-1.7814,-1.7821,-1.782,-1.7826,-1.7819,-1.7819,-1.7818,-1.7815,-1.7821,-1.7821,-1.7831,-1.7831,-1.7831]}]]